Location: Hartman Creek State Park
(44.3257°N, 89.2134°W)
Time: 19:01:39
(UTC-05:00)

Terra - Visible Passes

Search period start: 20 September 2014 00:00
Search period end: 30 September 2014 00:00
Orbit: 701 x 703 km, 98.2° (Epoch: 20 September)

Date Brightness Start Highest point End Pass type
(mag) Time Alt. Az. Time Alt. Az. Time Alt. Az.
20 Sep 4.2 21:43:02 13° NNE 21:43:02 13° NNE 21:43:51 10° NNE visible
20 Sep 4.7 23:21:56 14° NNW 23:21:56 14° NNW 23:22:33 10° NNW visible
21 Sep 4.2 22:26:24 16° N 22:26:24 16° N 22:27:27 10° N visible
22 Sep 4.3 21:30:53 11° NNE 21:30:53 11° NNE 21:31:05 10° NNE visible
22 Sep 4.7 23:09:46 14° NNW 23:09:46 14° NNW 23:10:22 10° NNW visible
23 Sep 4.3 22:14:14 14° N 22:14:14 14° N 22:15:03 10° N visible
24 Sep 4.7 22:57:36 13° NNW 22:57:36 13° NNW 22:58:07 10° NNW visible
25 Sep 4.4 22:02:05 12° NNE 22:02:05 12° NNE 22:02:34 10° N visible
26 Sep 4.7 22:45:26 12° N 22:45:26 12° N 22:45:50 10° N visible
27 Sep 4.5 21:49:54 10° NNE 21:49:54 10° NNE 21:50:00 10° NNE visible
28 Sep 4.7 22:33:16 11° N 22:33:16 11° N 22:33:29 10° N visible
